| time (UTC) | temp C | wind direction | speed KPH | gust KPH | rain 1hr cm | rain 24hr cm | rain mn cm | humidity % | barometer mb |
| 20260902023056 | 16 | 120 | 0.0 | 0.0 | 0.00 | 0.00 | 0.00 | 44 | 1005.1 |
| 20260902021553 | 16 | 120 | 0.0 | 0.0 | 0.00 | 0.00 | 0.00 | 43 | 1005.2 |
| 20260902020045 | 16 | 120 | 0.0 | 0.0 | 0.00 | 0.00 | 0.00 | 45 | 1005.2 |
| 20260902014543 | 16 | 120 | 0.0 | 0.0 | 0.00 | 0.00 | 0.00 | 35 | 1005.3 |
| 20260902013039 | 16 | 120 | 0.0 | 0.0 | 0.00 | 0.00 | 0.00 | 38 | 1005.2 |
| 20260902011533 | 16 | 120 | 0.0 | 0.0 | 0.00 | 0.00 | 0.00 | 32 | 1005.4 |
| 20260902010029 | 16 | 120 | 0.0 | 0.0 | 0.00 | 0.00 | 0.00 | 34 | 1005.3 |
| 20260902004527 | 17 | 120 | 0.0 | 0.0 | 0.00 | 0.00 | 0.00 | 30 | 1005.3 |
| 20260902003028 | 16 | 120 | 0.0 | 0.0 | 0.00 | 0.00 | 0.00 | 30 | 1005.4 |
| 20260902001515 | 16 | 120 | 0.0 | 0.0 | 0.00 | 0.00 | 0.00 | 31 | 1005.5 |
| 20260902000013 | 16 | 120 | 0.0 | 0.0 | 0.00 | 0.00 | 0.00 | 30 | 1005.3 |
| 20260901234506 | 16 | 120 | 0.0 | 0.0 | 0.00 | 0.00 | 0.00 | 31 | 1005.4 |
| 20260901233002 | 16 | 120 | 0.0 | 0.0 | 0.00 | 0.00 | 0.00 | 40 | 1005.4 |
| 20260901231600 | 16 | 44 | 0.0 | 0.0 | 0.00 | 0.00 | 0.00 | 35 | 1005.4 |
| 20260901230054 | 16 | 44 | 0.0 | 0.0 | 0.00 | 0.00 | 0.00 | 31 | 1005.4 |
| 20260901224549 | 16 | 44 | 0.0 | 1.6 | 0.00 | 0.00 | 0.00 | 35 | 1005.3 |
| 20260901223048 | 16 | 44 | 0.0 | 0.0 | 0.00 | 0.00 | 0.00 | 29 | 1005.4 |
| 20260901221540 | 16 | 44 | 0.0 | 0.0 | 0.00 | 0.00 | 0.00 | 28 | 1005.4 |
| 20260901220039 | 16 | 44 | 0.0 | 0.0 | 0.00 | 0.00 | 0.00 | 28 | 1005.5 |
| 20260901214534 | 16 | 44 | 0.0 | 0.0 | 0.00 | 0.00 | 0.00 | 27 | 1005.5 |
| 20260901213039 | 16 | 42 | 0.0 | 0.0 | 0.00 | 0.00 | 0.00 | 29 | 1005.6 |
| 20260901211523 | 16 | 42 | 0.0 | 0.0 | 0.00 | 0.00 | 0.00 | 27 | 1005.8 |
| 20260901210019 | 16 | 42 | 0.0 | 0.0 | 0.00 | 0.00 | 0.00 | 25 | 1005.8 |
| 20260901204515 | 16 | 42 | 0.0 | 1.6 | 0.00 | 0.00 | 0.00 | 29 | 1005.9 |
| 20260901203009 | 16 | 278 | 0.0 | 1.6 | 0.00 | 0.00 | 0.00 | 38 | 1005.9 |
| 20260901201505 | 16 | 277 | 0.0 | 1.6 | 0.00 | 0.00 | 0.00 | 44 | 1005.9 |
| 20260901200100 | 17 | 264 | 0.0 | 1.6 | 0.00 | 0.00 | 0.00 | 50 | 1005.9 |
| 20260901194559 | 18 | 264 | 0.0 | 1.6 | 0.00 | 0.00 | 0.00 | 58 | 1005.9 |
| 20260901193056 | 18 | 336 | 0.0 | 1.6 | 0.00 | 0.00 | 0.00 | 55 | 1005.9 |
| 20260901191547 | 18 | 193 | 0.0 | 0.0 | 0.00 | 0.00 | 0.00 | 56 | 1006.0 |
| 20260901190046 | 18 | 193 | 0.0 | 0.0 | 0.00 | 0.00 | 0.00 | 60 | 1005.9 |
| 20260901184545 | 19 | 193 | 0.0 | 0.0 | 0.00 | 0.00 | 0.00 | 59 | 1005.8 |
| 20260901183036 | 18 | 146 | 0.0 | 1.6 | 0.00 | 0.00 | 0.00 | 52 | 1005.9 |
| 20260901181533 | 18 | 145 | 0.0 | 0.0 | 0.00 | 0.00 | 0.00 | 46 | 1005.9 |
| 20260901180025 | 17 | 148 | 0.0 | 0.0 | 0.00 | 0.00 | 0.00 | 26 | 1005.9 |
| 20260901174520 | 16 | 148 | 0.0 | 1.6 | 0.00 | 0.00 | 0.00 | 12 | 1005.8 |
| 20260901173015 | 15 | 247 | 0.0 | 1.6 | 0.00 | 0.00 | 0.00 | 1 | 1005.9 |
| 20260901171512 | 15 | 248 | 0.0 | 0.0 | 0.00 | 0.00 | 0.00 | 1 | 1005.9 |
| 20260901170007 | 14 | 248 | 0.0 | 0.0 | 0.00 | 0.00 | 0.00 | 1 | 1005.9 |
| 20260901164502 | 14 | 247 | 0.0 | 0.0 | 0.00 | 0.00 | 0.00 | 1 | 1005.8 |
| 20260901163058 | 14 | 248 | 0.0 | 0.0 | 0.00 | 0.00 | 0.00 | 1 | 1005.9 |
| 20260901161554 | 14 | 247 | 0.0 | 0.0 | 0.00 | 0.00 | 0.00 | 1 | 1005.9 |
| 20260901160048 | 13 | 248 | 0.0 | 0.0 | 0.00 | 0.00 | 0.00 | 1 | 1006.0 |
| 20260901154544 | 13 | 248 | 0.0 | 0.0 | 0.00 | 0.00 | 0.00 | 1 | 1005.9 |
| 20260901153042 | 13 | 248 | 0.0 | 0.0 | 0.00 | 0.00 | 0.00 | 1 | 1005.9 |
| 20260901151535 | 12 | 247 | 0.0 | 0.0 | 0.00 | 0.00 | 0.00 | 1 | 1005.7 |
| 20260901150032 | 12 | 248 | 0.0 | 0.0 | 0.00 | 0.00 | 0.00 | 1 | 1005.7 |
| 20260901144529 | -17 | 0.0 | 0.0 | 0.00 | 0.00 | 0.00 | 1005.5 | ||
| 20260901143022 | -17 | 0.0 | 0.0 | 0.00 | 0.00 | 0.00 | 1005.4 | ||
| 20260901141532 | -17 | 0.0 | 0.0 | 0.00 | 0.00 | 0.00 | 1005.3 | ||
| 20260901140013 | -17 | 0.0 | 0.0 | 0.00 | 0.00 | 0.00 | 1005.3 | ||
| 20260901134511 | -17 | 0.0 | 0.0 | 0.00 | 0.00 | 0.00 | 1005.1 | ||
| 20260901133009 | -17 | 0.0 | 0.0 | 0.00 | 0.00 | 0.00 | 1005.0 | ||
| 20260901131604 | -17 | 0.0 | 0.0 | 0.00 | 0.00 | 0.00 | 1005.0 | ||
| 20260901130055 | -17 | 0.0 | 0.0 | 0.00 | 0.00 | 0.00 | 1004.8 | ||
| 20260901124555 | -17 | 0.0 | 0.0 | 0.00 | 0.00 | 0.00 | 1005.0 | ||
| 20260901123047 | 11 | 4 | 0.0 | 1.6 | 0.00 | 0.00 | 0.00 | 1 | 1005.0 |
| 20260901121545 | 11 | 1 | 0.0 | 1.6 | 0.00 | 0.00 | 0.00 | 1 | 1005.0 |
| 20260901120037 | 11 | 251 | 0.0 | 0.0 | 0.00 | 0.00 | 0.00 | 1 | 1005.1 |
| 20260901114545 | 12 | 251 | 0.0 | 1.6 | 0.00 | 0.00 | 0.00 | 1 | 1005.2 |
| 20260901113028 | 12 | 251 | 0.0 | 0.0 | 0.00 | 0.00 | 0.00 | 1 | 1005.3 |
| 20260901111524 | 12 | 251 | 0.0 | 1.6 | 0.00 | 0.00 | 0.00 | 1 | 1005.2 |
| 20260901110020 | 12 | 330 | 0.0 | 3.2 | 0.00 | 0.00 | 0.00 | 1 | 1005.3 |
| 20260901104515 | 12 | 229 | 0.0 | 0.0 | 0.00 | 0.00 | 0.00 | 1 | 1005.2 |
| 20260901103011 | 12 | 229 | 0.0 | 0.0 | 0.00 | 0.00 | 0.00 | 1 | 1005.3 |
| 20260901101506 | 12 | 229 | 0.0 | 0.0 | 0.00 | 0.00 | 0.00 | 1 | 1005.3 |
| 20260901100001 | 12 | 229 | 0.0 | 0.0 | 0.00 | 0.00 | 0.00 | 1 | 1005.4 |
| 20260901094557 | 12 | 229 | 0.0 | 0.0 | 0.00 | 0.00 | 0.00 | 1 | 1005.2 |
| 20260901093053 | 12 | 229 | 0.0 | 0.0 | 0.00 | 0.00 | 0.00 | 1 | 1005.3 |
| 20260901091553 | 12 | 229 | 0.0 | 0.0 | 0.00 | 0.00 | 0.00 | 1 | 1005.2 |
| 20260901090044 | 12 | 229 | 0.0 | 0.0 | 0.00 | 0.00 | 0.00 | 1 | 1005.2 |
| 20260901084539 | 12 | 229 | 0.0 | 0.0 | 0.00 | 0.00 | 0.00 | 1 | 1005.2 |
| 20260901083036 | 12 | 229 | 0.0 | 0.0 | 0.00 | 0.00 | 0.00 | 1 | 1005.1 |
| 20260901081538 | 12 | 229 | 0.0 | 0.0 | 0.00 | 0.00 | 0.00 | 1 | 1005.2 |
| 20260901080030 | 12 | 229 | 0.0 | 0.0 | 0.00 | 0.00 | 0.00 | 1 | 1005.1 |
| 20260901074522 | 12 | 229 | 0.0 | 0.0 | 0.00 | 0.00 | 0.00 | 1 | 1005.0 |
| 20260901073019 | 12 | 229 | 0.0 | 0.0 | 0.00 | 0.00 | 0.00 | 1 | 1005.1 |
| 20260901071514 | 12 | 229 | 0.0 | 0.0 | 0.00 | 0.00 | 0.00 | 1 | 1005.1 |
| 20260901070009 | 12 | 229 | 0.0 | 0.0 | 0.00 | 0.00 | 0.00 | 1 | 1005.1 |
| 20260901064505 | 12 | 229 | 0.0 | 0.0 | 0.00 | 0.00 | 0.00 | 1 | 1005.2 |
| 20260901063002 | 12 | 229 | 0.0 | 0.0 | 0.00 | 0.00 | 0.00 | 1 | 1005.3 |
| 20260901061557 | 12 | 229 | 0.0 | 0.0 | 0.00 | 0.00 | 0.00 | 1 | 1005.4 |
| 20260901060052 | 13 | 229 | 0.0 | 0.0 | 0.00 | 0.00 | 0.00 | 2 | 1005.5 |
| 20260901054551 | 13 | 229 | 0.0 | 0.0 | 0.00 | 0.00 | 0.00 | 2 | 1005.7 |
| 20260901053051 | 13 | 229 | 0.0 | 0.0 | 0.00 | 0.00 | 0.00 | 2 | 1005.7 |
| 20260901051539 | 13 | 229 | 0.0 | 0.0 | 0.00 | 0.00 | 0.00 | 1 | 1005.6 |
| 20260901050035 | 13 | 229 | 0.0 | 0.0 | 0.00 | 0.00 | 0.00 | 1 | 1005.8 |
| 20260901044530 | 13 | 229 | 0.0 | 0.0 | 0.00 | 0.00 | 0.00 | 6 | 1005.8 |
| 20260901043026 | 13 | 229 | 0.0 | 0.0 | 0.00 | 0.00 | 0.00 | 7 | 1005.8 |
| 20260901041523 | 13 | 229 | 0.0 | 0.0 | 0.00 | 0.00 | 0.00 | 13 | 1005.7 |
| 20260901040018 | 13 | 229 | 0.0 | 0.0 | 0.00 | 0.00 | 0.00 | 19 | 1005.7 |
| 20260901034521 | 14 | 221 | 0.0 | 0.0 | 0.00 | 0.00 | 0.00 | 27 | 1005.6 |
| 20260901033012 | 14 | 122 | 0.0 | 0.0 | 0.00 | 0.00 | 0.00 | 28 | 1005.5 |
| 20260901031508 | 14 | 122 | 0.0 | 0.0 | 0.00 | 0.00 | 0.00 | 33 | 1005.5 |
| 20260901030059 | 15 | 122 | 0.0 | 0.0 | 0.00 | 0.00 | 0.00 | 39 | 1005.6 |
| 20260901024555 | 15 | 122 | 0.0 | 0.0 | 0.00 | 0.00 | 0.00 | 50 | 1005.7 |